sat.trackr.live / text

‹ back to catalog

STARLINK-3244

NORAD 49741 · 2021-115T

PAYLOAD ACTIVE UNKNOWN

§ Identity

Operator
Country
US
Launch date
2021-12-02
Launch site
AFETR
Launch vehicle
Mass (kg)
RCS (m²)

Purposes: comms

External: N2YO · Heavens-Above · Gunter

§ Orbital elements

Epoch: 2026-09-19T23:05:10.987008Z

Period
94.01 min
Inclination
53.1608°
Eccentricity
0.0001264
Mean motion
15.31703226 rev/d
Perigee alt
469.9 km
Apogee alt
471.6 km
Semi-major
6,848.9 km
B*
3.5950e-5
RAAN
342.2948°
Arg perigee
74.8466°
Mean anomaly
285.2675°
Rev number
26,506

§ Raw data

STARLINK-32441 49741U 21115T   26262.96193272  .00000751  00000+0  35950-4 0  99902 49741  53.1608 342.2948 0001264  74.8466 285.2675 15.31703226265064

JSON: /api/v1/satellites/49741 · /tle

For live sub-satellite position, see the globe view (requires WebGL).

§ Visibility from observer

Set your observer location to see the next 7 days of passes ≥ 10°. The values pass through the URL so the page stays shareable.

No JS? Fill the form by hand. The geolocation button needs JavaScript.